Location: Anuling
(14.1239°N, 120.8922°E)
Time: 14:56:58
(UTC+00:00)

Okean 1-7 - Visible Passes

Search period start: 11 April 2026 00:00
Search period end: 21 April 2026 00:00
Orbit: 564 x 588 km, 82.5° (Epoch: 11 April)

Date Brightness Start Highest point End Pass type
(mag) Time Alt. Az. Time Alt. Az. Time Alt. Az.
11 Apr 4.4 12:07:25 10° NNW 12:10:59 34° W 12:10:59 34° W visible
12 Apr 4.8 10:36:37 10° ENE 10:38:09 12° E 10:39:41 10° ESE visible
12 Apr 5.1 12:11:38 10° NW 12:14:55 23° W 12:16:04 21° WSW visible
13 Apr 4.4 10:39:15 10° NE 10:42:00 17° E 10:44:46 10° SE visible
13 Apr 5.7 12:16:08 10° NW 12:18:42 16° W 12:21:16 10° SW visible
14 Apr 3.9 10:42:26 10° NNE 10:45:51 25° E 10:49:15 10° SE visible
14 Apr 6.1 12:21:22 10° WNW 12:22:28 11° W 12:23:32 10° WSW visible
15 Apr 3.4 10:45:52 10° NNE 10:49:40 37° E 10:53:29 10° SSE visible
16 Apr 2.9 10:49:28 10° N 10:53:29 56° E 10:57:31 10° SSE visible
17 Apr 2.8 10:53:11 10° N 10:57:17 86° E 11:01:25 10° S visible
18 Apr 3.4 10:57:01 10° NNW 11:01:04 62° W 11:05:08 10° S visible
19 Apr 4.3 11:01:00 10° NNW 11:04:51 40° W 11:08:44 10° SSW visible
20 Apr 5.1 11:05:07 10° NNW 11:08:37 27° W 11:12:08 10° SSW visible
